This is the latest recevied weather packets stored in our database for station/object N4MGC. If no packets are shown the sender has not sent any weather packets the latest 1 day(s).
| Time | Temp. | Humidity | Pressure | Rain* | Wind** | Luminosity | Snow |
|---|---|---|---|---|---|---|---|
| 1777992319 | 20° C | 73% | 1014.2 hPa | 0 mm | 1.79 m/s, 189° | 373 W/m² | - |
| 1777992016 | 19.44° C | 76% | 1014.1 hPa | 0 mm | 0 m/s | 135 W/m² | - |
| 1777991714 | 19.44° C | 74% | 1014.5 hPa | 0 mm | 0 m/s | 145 W/m² | - |
| 1777991411 | 19.44° C | 76% | 1014.3 hPa | 0 mm | 0 m/s | 566 W/m² | - |
| 1777991108 | 19.44° C | 75% | 1014.6 hPa | 0 mm | 0.89 m/s, 174° | 553 W/m² | - |
| 1777990805 | 19.44° C | 76% | 1014.5 hPa | 0 mm | 0 m/s | 91 W/m² | - |
| 1777990503 | 18.89° C | 76% | 1014.3 hPa | 0 mm | 0 m/s | 468 W/m² | - |
| 1777990199 | 18.33° C | 79% | 1014.2 hPa | 0 mm | 0 m/s | 414 W/m² | - |
| 1777989896 | 18.33° C | 77% | 1014.3 hPa | 0 mm | 0.89 m/s, 187° | 74 W/m² | - |
| 1777989592 | 18.33° C | 80% | 1014.3 hPa | 0 mm | 0 m/s | 69 W/m² | - |
| 1777989289 | 17.78° C | 81% | 1014.3 hPa | 0 mm | 0 m/s | 86 W/m² | - |
| 1777988985 | 17.78° C | 82% | 1014.3 hPa | 0 mm | 0 m/s | 98 W/m² | - |
| 1777988682 | 17.22° C | 81% | 1014.3 hPa | 0 mm | 0 m/s | 86 W/m² | - |
| 1777988379 | 17.22° C | 83% | 1014 hPa | 0 mm | 0 m/s | 98 W/m² | - |
| 1777988076 | 16.67° C | 84% | 1014.1 hPa | 0 mm | 0 m/s | 88 W/m² | - |
| 1777987771 | 16.67° C | 85% | 1013.9 hPa | 0 mm | 0 m/s | 55 W/m² | - |
| 1777987468 | 16.67° C | 86% | 1014.2 hPa | 0 mm | 0 m/s | 58 W/m² | - |
| 1777987166 | 16.11° C | 85% | 1014.1 hPa | 0 mm | 0 m/s | 62 W/m² | - |
| 1777986863 | 15.56° C | 87% | 1014 hPa | 0 mm | 0 m/s | 65 W/m² | - |
| 1777986561 | 15.56° C | 87% | 1014.3 hPa | 0 mm | 0 m/s | 59 W/m² | - |
| 1777986259 | 15° C | 89% | 1014.1 hPa | 0 mm | 0 m/s | 55 W/m² | - |
| 1777985955 | 13.89° C | 94% | 1014 hPa | 0 mm | 0 m/s | 48 W/m² | - |
| 1777985653 | 13.33° C | 98% | 1014.2 hPa | 0 mm | 0 m/s | 52 W/m² | - |
| 1777985349 | 12.78° C | 99% | 1014.1 hPa | 0 mm | 0 m/s | 49 W/m² | - |
| 1777985047 | 12.78° C | 99% | 1014.1 hPa | 0 mm | 0 m/s | 47 W/m² | - |
* Rain latest hour (hover to see other rain measurements)
** Current wind speed in m/s (hover to see current wind gust speed)